Regional Weather Roundup
Issued by NWS

Home | Current Version | Previous Version | Graphics & Text | Print | Product List | Glossary On
Versions: 1 2 3 4 5 6 7 8 9 10 11 12 13 14 15 16 17 18 19 20 21 22 23 24 25 26 27 28 29 30 31 32 33 34 35 36 37 38 39 40 41 42 43 44 45 46 47 48 49 50
000
ASUS45 KBOU 251207
RWRCO

WEATHER ROUNDUP FOR COLORADO
NATIONAL WEATHER SERVICE DENVER/BOULDER CO
600 AM MDT MON MAY 25 2015

NOTE: "FAIR" INDICATES FEW OR NO CLOUDS BELOW 12000 FEET WITH NO
SIGNIFICANT WEATHER AND/OR OBSTRUCTIONS TO VISIBILITY.

COZ001>005-013-030-031-251300-
...NORTHWEST COLORADO...

CITY           SKY/WX    TMP DP  RH WIND       PRES   REMARKS
CRAIG          LGT RAIN  44  41  89 CALM      29.98R
HAYDEN         CLOUDY    39  37  93 E3        29.99R
MEEKER         CLOUDY    42  39  89 CALM      29.99R
MOUNT WERNER   NOT AVBL
STEAMBOAT SPGS CLOUDY    38  37  96 CALM      30.00R
WALDEN         CLOUDY    34  32  93 S5        30.00R WCI  30
$$

COZ006>008-011-251300-
...WEST CENTRAL VALLEYS...

CITY           SKY/WX    TMP DP  RH WIND       PRES   REMARKS
GRAND JUNCTION CLOUDY    47  46  97 SE8       29.96R
MONTROSE       CLOUDY    45  41  86 S5        30.01R
EAGLE          CLOUDY    37  37 100 E3        30.02R
RIFLE          CLOUDY    45  41  86 CALM      29.98R
DELTA          CLOUDY    47  45  90 MISG      30.00R
NUCLA          CLOUDY    45  43  93 SE8       30.01S
$$

COZ017>023-064>068-251300-
...SOUTHWEST COLORADO...

CITY           SKY/WX    TMP DP  RH WIND       PRES   REMARKS
DURANGO        LGT RAIN  42  41  96 NE5       30.02S
CORTEZ         CLOUDY    47  44  90 NE3       29.98S
PAGOSA SPRINGS LGT RAIN  40  40 100 CALM      30.05S
TELLURIDE      CLOUDY    36  36 100 E3        30.09R
WOLF CREEK PAS NOT AVBL
$$

COZ009-010-012-014-032>034-037-058>063-251300-
...CENTRAL COLORADO...

CITY           SKY/WX    TMP DP  RH WIND       PRES   REMARKS
ASPEN          CLOUDY    37  34  89 CALM      30.01R
BUENA VISTA    MOCLDY    38  36  91 CALM      29.98R
COPPER MTN     CLOUDY    28  23  80 W16       30.08R HAZE    WCI  17
BERTHOUD PASS  CLOUDY    21  12  68 NW20G26   30.07R WCI   6
COTTONWOOD PAS CLOUDY    36  32  87 CALM      30.02S
GUNNISON       CLOUDY    37  32  81 CALM      30.05R
KREMMLING      CLOUDY    37  34  87 CALM      30.02R
LEADVILLE      CLOUDY    31  27  85 N7        30.02R WCI  24
MONARCH PASS   CLOUDY    27  27 100 MISG      30.18R
SALIDA         MOCLDY    43  37  79 CALM      30.04R
SUNLIGHT       FOG       32  32 100 CALM      30.11S VSB 3/4
WILKERSON PASS FOG       30  28  93 W5        30.06S VSB<1/4 WCI  25
$$

COZ069>075-251300-
...SAN LUIS VALLEY/SANGRE DE CRISTO MOUNTAINS...

CITY           SKY/WX    TMP DP  RH WIND       PRES   REMARKS
ALAMOSA        PTCLDY    32  30  92 NE6       29.99R WCI  26
LA VETA PASS   MOCLDY   N/A N/A N/A MISG      30.02F
SAGUACHE       RAIN      41  36  81 NW7       30.02R
$$

COZ035-036-038>040-251300-
...NORTHERN COLORADO FRONT RANGE...

CITY           SKY/WX    TMP DP  RH WIND       PRES   REMARKS
DENVER INTL AP PTCLDY    44  39  82 W6        29.89R
DMNS CITY PARK   N/A     42  40  90 S3        29.90R
AURORA         PTCLDY    42  40  90 SW3       29.90R
FRONT RANGE AP NOT AVBL
ERIE MUNI ARPT PTCLDY    38  37  99 CALM      29.89R
BOULDER MUN AP PTCLDY    41  37  87 CALM      29.89R
CENTENNIAL     PTCLDY    41  38  89 W8        29.90R
BROOMFIELD     CLEAR     45  36  70 W5        29.90R
FORT COLLINS   PTCLDY    45  43  93 S3        29.90R
LONGMONT       PTCLDY    43  40  91 CALM      29.91R
$$

COZ041-046-047-076>085-087-088-251300-
...PIKES PEAK/PALMER DIVIDE AND SOUTHERN FOOTHILLS...

CITY           SKY/WX    TMP DP  RH WIND       PRES   REMARKS
COLO. SPRINGS  MOCLDY    44  37  76 W5        29.90R
A. F. ACADEMY  PTCLDY    44  35  73 N6        29.90R
ELLICOTT       NOT AVBL
FALCON         PTCLDY    42  35  75 NW6       29.92S
FORT CARSON    PTCLDY    43  39  87 NW9       29.88R
LIMON          MOCLDY    43  42  97 NW6       29.88R
MONUMENT HILL  NOT AVBL
TRINIDAD       CLEAR     42  35  76 NW7       29.90R
$$

COZ042>045-048>051-090-091-251300-
...NORTHEAST COLORADO...

CITY           SKY/WX    TMP DP  RH WIND       PRES   REMARKS
GREELEY ARPT   CLOUDY    48  43  81 W3        29.88S
AKRON          PTCLDY    42  42 100 W12       29.84R
BURLINGTON     CLEAR     45  41  86 W9        29.85R
WRAY           CLOUDY   N/A N/A N/A W6        29.81S
STERLING       LGT RAIN  50  46  87 NW7       29.83R
HOLYOKE        NOT AVBL
FORT MORGAN    MOCLDY    44  42  93 W5        29.87S
$$

COZ086-089-092>099-251300-
...SOUTHEAST COLORADO...

CITY           SKY/WX    TMP DP  RH WIND       PRES   REMARKS
PUEBLO         PTCLDY    43  42  97 SW5       29.87R
LA JUNTA       CLEAR     46  43  89 W9        29.86R
LAMAR          CLEAR     44  43  96 CALM      29.83R
SPRINGFIELD      N/A     41  38  89 W5        29.84S
$$


USA.gov is the U.S. government's official web portal to all federal, state and local government web resources and services.